CAPE
525 593 859 1387 1863 1876 1562 1196 1020 1076 1203 1305 1126 1247 984 831 629 435 219 282 216 141 32 6 1 0 0 7 25 37 7 0 0 22 0 8 0 0 23 71 5 0 13
1442 1641 1786 1857 2340 2038 1556 1673 1415 1568 1532 1299 1103 766 597 250 218 296 297 229 154 22 0 16 2 0 0 37 24 29 13 4 7 6 13 37 50 35 49 21 0 0 0
1526 1670 2125 2059 2077 1794 1769 1600 1544 1314 1120 826 542 142 190 290 301 290 192 126 218 160 71 18 2 0 0 13 18 27 22 6 5 5 6 12 8 7 5 0 1 0 0
1685 1863 1723 1551 1627 1439 1298 1086 852 725 580 434 132 127 197 281 261 394 447 293 190 135 56 19 0 0 0 6 52 30 19 8 3 1 6 7 4 1 0 0 0 0 1
1561 1562 1437 1181 1041 911 767 603 427 219 49 40 88 114 68 168 363 270 261 234 111 26 0 1 1 19 26 69 42 19 15 3 0 0 0 0 0 1 1 1 0 0 1
1434 1250 1174 1005 820 674 508 224 104 37 44 81 47 7 6 0 0 0 8 1 37 12 4 11 0 2 2 40 22 36 9 2 0 0 1 0 0 0 0 0 0 0 0
1182 1079 954 835 668 514 29 3 11 43 34 82 35 11 0 0 0 0 2 3 0 4 4 13 20 21 4 0 1 12 3 0 0 0 0 0 0 0 0 1 0 0 0
804 708 571 374 227 3 6 19 28 14 50 122 107 18 0 0 0 0 0 0 0 8 13 34 35 38 11 35 28 27 2 0 0 0 0 0 0 0 0 1 0 0 1
304 210 117 10 5 17 42 34 37 28 90 147 50 0 0 0 0 0 0 0 0 0 1 4 4 5 0 119 24 0 0 0 0 0 0 0 0 0 0 0 0 0 2
152 131 66 50 28 47 63 53 67 46 55 53 22 0 0 0 0 0 0 0 0 3 0 6 0 0 0 71 1 1 0 0 0 0 0 0 0 0 0 0 0 1 1
163 89 30 5 15 46 73 56 46 54 73 63 3 0 0 0 0 0 0 0 0 0 1 0 0 0 0 0 1 0 0 0 0 0 1 1 0 0 0 0 0 0 0
54 7 22 24 33 33 26 58 74 109 109 10 0 0 0 0 0 0 0 0 0 0 0 1 0 0 0 0 0 0 0 1 1 1 1 1 1 1 0 0 0 0 0
48 57 32 17 17 19 14 53 21 56 44 0 0 0 0 0 0 0 0 0 0 0 0 0 0 0 0 0 0 0 0 0 0 1 1 1 0 0 0 0 0 0 0
38 18 15 102 47 11 18 19 5 26 27 2 0 0 0 0 0 0 0 0 0 0 0 0 0 0 0 0 0 0 0 0 0 0 1 1 0 0 0 0 0 0 0
16 38 77 79 4 0 0 0 12 1 29 32 0 0 0 1 0 0 0 0 0 0 0 1 0 0 0 0 0 0 0 0 0 0 0 0 0 0 0 0 0 0 0
6 24 62 50 10 0 0 0 0 0 0 0 5 0 0 0 0 0 0 0 0 0 0 0 1 0 0 4 0 1 0 0 0 0 1 0 1 0 0 0 0 0 0
12 20 33 124 18 0 0 0 0 0 0 0 0 0 0 0 0 0 0 0 0 0 0 1 0 0 5 4 0 1 1 1 0 0 0 0 0 0 0 0 0 0 0
17 72 94 224 118 5 0 0 0 0 0 0 0 0 0 0 0 0 0 0 0 0 0 0 0 0 1 1 0 0 0 1 0 0 0 0 0 0 0 0 0 0 0
75 107 160 239 215 102 8 0 0 0 0 0 0 0 0 0 0 0 0 3 4 1 0 0 0 0 0 0 0 0 0 0 0 0 0 1 1 0 0 0 0 0 0
63 101 203 250 153 87 117 31 0 0 0 1 1 0 0 0 0 0 0 3 13 8 2 0 0 0 0 0 10 12 4 0 0 0 3 4 1 0 0 0 0 0 0
119 133 149 91 128 173 147 76 0 0 0 0 0 0 0 0 0 0 0 5 22 1 4 0 0 0 1 7 29 24 24 19 22 35 22 18 19 16 1 5 25 30 14
85 104 145 114 137 237 178 222 57 8 1 0 0 0 0 0 0 0 0 0 1 1 15 30 13 3 6 8 33 31 45 56 44 54 44 28 24 24 18 17 19 18 2
53 56 135 190 162 104 179 361 111 173 22 0 0 0 0 6 2 4 1 0 0 0 0 0 0 0 0 0 0 0 0 1 0 0 6 28 28 40 39 48 74 69 53
113 96 92 72 200 194 201 112 21 31 8 0 0 2 2 1 0 0 0 0 0 0 0 0 0 0 0 0 0 0 0 0 0 0 0 23 44 31 25 48 28 33 28
0 18 14 5 0 1 0 0 0 0 20 0 1 0 0 1 0 0 0 0 0 0 0 0 0 0 0 0 0 0 0 0 0 0 0 0 0 0 0 0 0 0 0
0 0 0 0 0 0 0 0 0 0 0 0 0 0 0 0 0 0 0 0 0 0 0 0 0 0 0 0 0 0 0 0 0 0 0 0 0 0 0 0 0 0 0
CIN
-188 -180 -132 -59 -30 -57 -73 -112 -148 -130 -95 -59 -50 -11 -9 -12 -18 -17 -44 -31 -32 -30 -52 -52 -29 0 0 -66 -45 -44 -32 0 0 -20 0 -53 0 -84 -57 -73 -50 0 -50
-52 -35 -22 -16 -15 -28 -59 -48 -51 -25 -16 -18 -15 -17 -16 -43 -33 -18 -24 -27 -36 -57 0 -48 -23 0 0 -43 -57 -38 -36 -32 -22 -23 -26 -21 -29 -43 -40 -39 0 0 0
-24 -25 -12 -19 -21 -40 -34 -31 -24 -25 -22 -27 -28 -68 -58 -27 -24 -32 -30 -36 -29 -30 -36 -39 -24 0 0 -34 -41 -29 -31 -31 -20 -36 -45 -32 -32 -62 -65 -27 -0 0 0
-22 -23 -24 -33 -54 -50 -36 -37 -53 -48 -40 -42 -69 -73 -44 -40 -28 -20 -21 -28 -42 -38 -45 -50 0 0 0 -25 -38 -25 -34 -26 -18 -47 -55 -49 -53 -2 -26 -37 -0 0 -9
-38 -30 -33 -52 -54 -48 -62 -76 -66 -79 -133 -119 -91 -90 -117 -52 -36 -39 -36 -35 -57 -63 -1 -43 -17 -40 -57 -39 -41 -29 -27 -39 0 -15 0 -2 0 -7 -12 0 0 0 0
-31 -27 -33 -39 -50 -60 -64 -92 -126 -141 -113 -92 -129 -30 -40 0 0 0 -93 -14 -73 -65 -49 -48 -22 -51 -85 -55 -43 -33 -46 -71 0 0 0 0 0 0 0 0 0 -8 -0
-33 -29 -40 -51 -59 -57 -157 -8 -11 -158 -151 -103 -95 -47 -37 0 0 0 -24 -86 0 -76 -56 -29 -22 -45 -69 0 -20 -50 -75 -67 -21 0 0 0 0 0 0 0 0 0 0
-40 -54 -68 -94 -110 -66 -6 -10 -187 -195 -136 -59 -55 -83 0 0 0 0 -5 0 0 -55 -23 -9 -16 -30 -45 -48 -55 -53 -26 0 0 0 0 0 0 0 0 0 0 0 0
-114 -126 -141 -211 -2 -153 -134 -153 -164 -163 -79 -42 -71 -7 0 0 0 0 0 0 0 -29 -40 -25 -8 -34 0 -31 -51 0 -2 0 0 0 0 0 0 0 0 0 0 0 0
-141 -129 -147 -159 -173 -115 -107 -130 -111 -131 -105 -51 -53 0 0 0 0 -3 -0 0 0 -101 0 -42 0 0 -2 -35 -21 -25 0 -2 0 0 0 0 0 0 0 0 0 0 0
-99 -126 -155 -131 -145 -119 -110 -136 -152 -118 -59 -51 -25 0 0 0 0 0 -13 0 0 -0 -73 -54 0 0 -7 0 -10 -2 0 0 0 0 0 0 0 0 0 0 0 0 0
-113 -133 -144 -128 -115 -144 -168 -131 -95 -30 -40 -22 0 -11 -16 0 0 0 0 0 0 0 0 -50 0 0 0 0 0 0 0 0 0 0 0 0 0 0 0 0 0 0 0
-99 -91 -110 -149 -147 -114 -21 -99 -87 -44 -36 0 0 0 0 0 0 0 0 0 0 -26 0 0 0 0 0 0 0 0 0 0 0 0 0 0 0 0 0 0 0 0 0
-68 -34 -42 -59 -86 -30 -31 -38 -35 -58 -28 -6 0 0 0 0 0 0 0 0 0 0 0 0 0 0 0 0 0 0 0 0 0 0 0 0 0 0 0 0 0 0 0
-25 -73 -62 -44 -29 0 0 0 -53 -34 -40 -37 0 0 0 -0 0 -6 0 0 0 0 0 0 0 0 0 0 0 -4 0 0 0 0 0 0 0 0 0 0 0 0 0
-34 -31 -58 -69 -76 0 0 0 0 0 0 0 -54 -23 0 0 0 -13 0 0 0 0 0 0 0 0 0 -1 -2 -2 0 0 0 0 0 0 0 0 0 0 0 0 0
-26 -49 -61 -75 -105 0 0 0 0 0 0 0 -15 0 0 0 0 0 0 0 0 0 0 0 0 0 -7 -8 0 -1 -1 -1 0 0 0 0 0 0 0 0 0 -0 0
-48 -65 -61 -30 -62 -59 0 0 0 0 0 0 0 0 0 0 0 0 0 0 0 0 0 0 -8 -16 -17 -13 0 0 0 -1 0 0 0 0 0 0 -20 -43 0 0 0
-48 -60 -44 -42 -50 -68 -80 0 0 0 0 0 0 0 0 0 0 0 0 -31 -23 -14 0 0 0 0 0 0 0 0 0 0 0 0 0 -34 -32 0 0 0 0 0 0
-44 -51 -44 -41 -40 -36 -50 -60 0 0 0 0 0 0 0 0 0 0 0 -16 -18 -29 -46 0 0 -23 0 -13 -25 -40 -38 0 0 0 -55 -37 -32 0 0 0 0 0 0
-30 -30 -47 -61 -46 -57 -51 -51 0 0 0 0 0 0 0 0 0 0 0 -28 -21 -57 -75 0 0 0 -83 -56 -34 -35 -46 -54 -46 -36 -40 -32 -24 -16 -1 -28 -32 -34 -47
-59 -66 -50 -57 -56 -54 -74 -84 -85 -30 -8 0 0 0 0 0 0 0 0 -10 -6 -40 -40 -39 -47 -48 -35 -40 -38 -34 -32 -29 -27 -30 -38 -45 -47 -51 -57 -47 -41 -41 -7
-80 -67 -56 -48 -50 -73 -65 -49 -57 -45 -67 0 0 0 0 -41 -48 -45 -21 0 0 0 0 0 0 0 0 0 0 0 0 -63 0 0 -100 -40 -41 -49 -41 -37 -38 -30 -29
-106 -131 -113 -78 -50 -63 -45 -69 -80 -57 -69 -0 0 0 0 0 0 0 0 0 0 0 0 0 0 0 0 0 0 0 0 0 0 0 0 -59 -59 -82 -106 -79 -70 -67 -61
-18 -265 -148 -215 -31 -232 0 0 0 0 -123 0 0 0 0 0 0 0 0 0 0 0 0 0 0 0 0 0 0 0 0 0 0 0 0 0 0 0 0 0 0 0 0
0 0 0 0 0 0 0 0 0 0 0 0 0 0 0 0 0 0 0 0 0 0 0 0 0 0 0 0 0 0 0 0 0 0 0 0 0 0 0 0 0 0 0
Wind_Speed
13 13 13 12 10 7 6 5 3 1 1 2 4 4 4 4 4 5 6 5 4 3 4 5 7 8 8 9 12 9 8 13 6 11 9 8 3 4 9 15 10 6 14
10 10 9 8 7 7 5 4 4 4 5 6 6 6 5 4 6 6 6 5 3 2 3 5 5 7 9 9 8 7 11 7 5 12 3 6 4 3 0 2 5 6 11
6 6 5 5 7 7 6 5 8 7 7 7 7 4 4 5 4 5 6 5 4 2 2 3 4 8 13 13 6 6 12 6 6 9 4 5 5 2 2 3 3 6 10
7 6 6 8 8 7 7 8 6 6 6 5 6 6 5 5 6 7 8 9 8 7 5 4 6 7 19 20 8 4 5 4 7 7 5 3 3 9 4 3 3 10 10
9 10 10 9 10 10 8 6 5 5 6 6 7 7 8 9 9 9 11 11 10 10 9 8 7 18 23 24 4 8 1 2 6 6 2 5 10 8 3 9 4 4 12
12 10 9 11 10 9 7 6 6 5 7 8 9 8 8 9 10 10 12 12 11 11 10 9 6 12 15 10 3 9 8 10 6 6 2 3 9 5 4 8 11 10 8
13 12 10 10 8 7 5 5 6 9 10 9 9 8 9 9 11 12 13 13 14 13 11 12 5 8 9 4 3 6 7 9 13 11 10 7 5 9 10 11 10 10 9
12 11 8 6 4 4 5 7 9 9 10 9 9 9 9 10 11 12 13 14 15 15 12 6 6 5 4 6 1 5 3 1 2 2 6 3 4 14 17 7 6 5 5
11 8 7 6 5 6 8 10 8 9 10 11 9 9 10 11 12 12 13 15 15 15 10 6 4 4 4 3 3 4 2 4 6 4 4 4 11 10 7 8 8 12 5
13 10 9 10 9 8 11 10 8 9 10 10 8 9 11 12 12 13 14 14 14 13 9 9 10 4 11 9 6 7 5 3 2 1 3 2 4 11 15 13 18 19 7
11 10 10 11 11 12 12 9 10 9 9 8 8 10 12 12 13 14 14 15 16 15 13 12 12 11 9 3 7 7 7 2 1 3 3 5 9 4 6 4 4 17 21
13 13 13 13 10 11 10 10 11 11 11 9 7 10 12 12 14 15 16 16 18 17 18 13 4 4 3 5 3 11 11 5 1 2 2 5 4 4 12 5 3 4 14
14 15 15 13 14 13 11 9 6 10 11 8 6 10 11 11 13 15 17 18 19 17 19 17 12 5 4 5 10 9 8 0 2 7 9 4 5 3 4 5 13 18 20
11 12 14 14 14 12 10 7 7 11 9 6 5 10 10 12 14 13 17 16 16 18 17 12 8 1 2 5 1 8 6 2 1 5 16 7 1 6 2 15 18 21 24
13 14 13 15 12 7 4 5 4 5 3 9 8 11 11 13 15 13 17 18 16 21 19 8 2 4 3 7 9 9 9 8 9 11 9 1 5 4 17 19 16 12 18
15 16 16 14 8 7 7 5 7 6 15 7 10 10 11 14 14 15 15 21 23 18 10 13 11 10 18 18 9 9 9 9 10 8 6 0 13 15 7 24 27 29 31
21 18 18 15 11 11 10 8 9 5 6 4 8 14 15 15 18 18 18 22 23 21 17 12 14 12 9 15 15 23 17 5 4 3 3 3 10 15 12 15 31 29 28
24 23 21 19 16 16 14 11 8 6 5 2 3 11 15 16 20 20 20 18 20 18 19 24 25 25 21 16 21 25 26 26 25 22 17 8 24 20 26 28 28 28 28
25 21 21 20 19 19 17 16 11 7 4 4 5 6 9 14 21 24 25 6 21 24 24 26 28 29 29 24 26 26 25 26 27 27 27 28 28 30 28 28 27 27 26
18 23 23 20 20 18 21 20 14 10 10 12 11 12 11 13 24 28 28 16 26 25 25 26 27 29 28 23 24 22 24 24 25 25 24 24 27 28 29 28 28 28 25
19 23 24 23 23 20 22 22 12 14 16 17 19 21 25 25 29 29 27 18 23 26 26 26 27 28 27 24 24 23 23 22 23 22 22 22 23 28 29 29 30 31 31
15 20 24 27 25 23 24 23 20 20 19 20 22 25 24 24 28 28 24 12 7 6 14 16 5 7 10 11 15 14 21 17 10 19 20 20 22 26 28 29 30 31 22
5 20 21 23 13 20 19 8 11 10 12 16 21 23 20 14 10 12 9 8 7 9 7 7 7 7 8 9 10 10 12 16 19 20 23 25 25 25 18 12 19 20 21
3 2 5 1 1 1 3 2 8 14 15 14 12 10 10 9 9 8 7 8 8 7 8 9 8 7 9 10 11 13 14 16 17 18 16 13 13 17 17 17 20 21 23
5 5 6 6 1 1 7 4 5 7 11 10 9 7 7 9 9 9 8 8 8 9 9 9 10 11 11 11 12 14 15 15 15 16 16 16 17 19 19 21 22 23 25
2 3 2 6 5 4 3 8 4 5 8 6 6 6 6 8 9 10 11 11 11 11 12 12 13 14 14 15 16 16 18 19 19 19 19 19 20 21 22 24 26 27 28
Wind_Direction
250 251 253 250 234 220 214 230 218 201 161 121 119 106 102 74 34 3 354 358 18 43 19 6 357 359 6 2 324 351 6 118 255 279 57 255 309 261 95 228 243 239 232
247 250 246 222 193 177 175 170 149 127 111 108 103 101 90 51 352 4 9 22 42 26 4 352 357 357 358 349 323 335 298 339 18 86 336 263 283 255 19 141 227 231 228
232 210 201 184 158 158 150 136 122 111 103 100 101 68 43 52 50 46 26 29 30 61 26 21 358 339 326 296 320 330 286 352 86 97 76 266 278 304 187 206 197 219 221
180 165 149 141 134 133 125 118 103 97 88 80 73 44 58 53 20 19 17 9 10 16 25 34 2 341 265 259 290 313 324 5 105 103 92 57 244 225 223 135 166 219 218
151 139 130 125 123 121 114 104 89 69 74 61 63 48 31 12 2 14 5 5 18 21 26 12 15 274 239 242 298 272 16 101 113 114 143 243 234 236 183 231 181 187 224
135 135 131 126 118 111 101 84 82 69 78 78 71 53 21 6 360 10 10 23 28 28 29 48 345 278 256 277 301 258 113 121 128 124 197 136 237 232 187 122 121 122 221
131 128 124 117 113 106 88 76 75 84 86 79 63 48 34 18 12 20 31 37 34 41 50 76 41 283 274 323 320 81 104 113 118 119 123 132 144 124 126 127 129 129 231
126 122 120 115 107 79 83 88 87 88 86 68 60 51 41 18 25 31 53 50 41 44 43 7 41 14 338 52 23 67 84 237 43 287 121 191 219 120 125 138 142 214 219
116 116 110 99 86 91 99 100 88 79 77 80 60 48 43 41 36 47 54 63 58 49 27 325 18 6 295 50 58 75 65 273 266 71 116 119 115 123 135 122 125 121 180
116 109 95 97 97 99 104 98 83 82 83 72 52 39 49 51 40 51 64 61 62 54 27 283 262 292 239 89 65 83 75 61 62 110 210 171 153 121 126 122 126 130 122
112 94 94 92 102 107 105 92 90 84 77 67 47 33 43 50 42 51 62 73 86 82 68 245 246 244 248 78 77 83 84 79 47 219 213 220 218 177 227 215 144 130 134
101 95 96 95 93 103 102 93 94 88 91 77 52 37 32 27 51 60 81 87 99 96 101 85 286 257 86 75 52 97 95 78 35 226 145 112 131 186 230 234 196 237 243
96 97 97 89 100 102 99 95 74 94 99 82 39 58 47 25 46 62 81 96 93 91 105 97 84 77 93 78 87 95 85 267 54 92 101 105 106 100 241 251 244 236 242
91 90 96 94 90 84 90 88 90 108 102 85 50 64 48 57 62 42 71 71 75 86 93 84 82 124 200 81 175 240 253 278 31 90 122 99 57 256 256 240 235 230 222
93 89 90 90 84 58 7 313 33 308 266 107 89 86 75 78 92 62 85 90 77 100 97 81 105 97 108 235 236 243 247 257 259 247 248 203 260 271 235 231 246 260 236
97 98 94 87 65 56 59 7 334 355 242 93 90 76 70 77 72 71 66 86 95 92 78 88 92 94 107 210 236 250 264 278 265 261 266 224 124 126 263 224 214 205 187
112 101 98 86 74 79 73 63 57 9 27 31 69 85 88 82 89 86 84 92 94 94 89 91 93 91 84 94 97 201 226 6 51 311 75 83 112 118 113 124 184 200 206
117 112 104 96 85 88 81 72 60 63 65 284 342 68 84 85 93 92 91 78 83 86 96 114 119 123 116 90 116 148 149 157 129 122 127 177 136 128 152 203 202 198 199
126 114 111 102 96 94 86 82 71 69 67 56 55 50 64 82 96 101 102 57 92 104 111 130 145 155 162 181 166 143 129 135 140 144 153 166 159 177 184 198 208 203 200
107 118 116 99 98 92 94 90 77 75 79 79 76 77 80 88 108 119 150 192 132 106 112 124 135 145 163 194 163 130 132 138 149 157 159 161 174 182 201 211 214 218 204
108 113 111 102 106 93 98 96 79 83 84 87 90 97 106 109 122 128 155 196 168 122 116 117 124 146 162 171 147 135 136 140 153 153 161 168 168 204 216 224 230 244 240
102 109 110 117 112 105 105 100 93 91 88 90 96 105 102 106 124 133 170 218 255 291 129 108 348 285 256 256 232 165 156 170 159 176 175 173 180 197 216 229 241 252 294
222 119 117 117 91 104 97 77 80 75 77 86 94 96 86 76 72 184 40 19 0 6 1 6 346 333 313 317 309 301 288 278 264 263 249 219 230 224 196 227 280 292 306
81 123 82 44 62 58 77 56 73 79 84 87 78 62 55 53 49 42 31 25 10 4 17 20 359 336 320 317 315 310 298 286 290 292 306 344 337 332 328 323 317 316 317
65 84 81 70 313 254 88 82 77 75 86 80 74 60 43 46 49 47 39 35 33 31 25 18 11 3 360 351 347 344 335 330 333 336 337 339 337 331 327 326 325 325 324
40 63 38 59 207 214 107 87 92 81 90 74 59 51 43 38 38 46 42 41 38 34 29 20 14 11 5 357 354 354 350 351 351 350 347 342 338 332 330 327 326 324 323